Simultaneous Nadir Overpasses (SNOs) Predictions

Prediction of SNOs between METOP-B and TERRA Satellite Orbit:

Table of predicted SNOs for the next 14.0 days since TLE Epoch: 5/31/2014
Index Date (METOP-B) Time (METOP-B) Lat,Lon (METOP-B) SZA (METOP-B ) Date (TERRA) Time (TERRA) Lat,Lon (TERRA) SZA (TERRA ) Distance(km) Time Diff (sec)
1 05/31/2014 15:19:20 81.32, -2.51 62.36 05/31/2014 15:20:33 81.33, -2.36 62.41 2.66 73
2 05/31/2014 16:10:00 -81.32, 164.95 117.64 05/31/2014 16:10:00 -81.32, 165.13 117.62 3.04 0
3 05/31/2014 17:00:40 81.33, -27.23 62.42 05/31/2014 16:59:26 81.33, -27.05 62.41 3.15 74
4 06/03/2014 10:53:40 81.32, 64.09 62.00 06/03/2014 10:54:48 81.32, 63.90 62.01 3.08 68
5 06/03/2014 11:44:19 -81.33,-128.07 117.94 06/03/2014 11:44:14 -81.33,-128.19 117.96 2.03 5
6 06/
